Time,TemperatureF,DewpointF,PressureIn,WindDirection,WindDirectionDegrees,WindSpeedMPH,WindSpeedGustMPH,Humidity,HourlyPrecipIn,Conditions,Clouds,dailyrainin,SoftwareType,DateUTC
2013-02-18 00:02:00,17.0,15.0,29.73,NNW,331,18.0,-999.0,93,-99.99,,,-99.99,,2013-02-18 06:02:00,
2013-02-18 00:11:00,17.0,15.0,29.73,NNW,331,18.0,-999.0,93,-99.99,,,-99.99,,2013-02-18 06:11:00,
2013-02-18 00:21:00,17.0,15.0,29.74,NNW,345,16.0,-999.0,93,-99.99,,,-99.99,,2013-02-18 06:21:00,
2013-02-18 00:32:00,17.0,15.0,29.75,North,350,16.0,-999.0,93,-99.99,,,-99.99,,2013-02-18 06:32:00,
2013-02-18 00:41:00,17.0,15.0,29.76,North,11,18.0,-999.0,93,-99.99,,,-99.99,,2013-02-18 06:41:00,
2013-02-18 00:52:00,17.0,15.0,29.76,North,11,18.0,-999.0,93,-99.99,,,-99.99,,2013-02-18 06:52:00,
2013-02-18 01:01:00,17.0,15.0,29.77,NNW,346,18.0,-999.0,93,-99.99,,,-99.99,,2013-02-18 07:01:00,
2013-02-18 01:11:00,17.0,15.0,29.77,NNW,346,18.0,-999.0,93,-99.99,,,-99.99,,2013-02-18 07:11:00,
2013-02-18 01:21:00,17.0,15.0,29.78,NNW,338,16.0,-999.0,93,-99.99,,,-99.99,,2013-02-18 07:21:00,
2013-02-18 01:32:00,16.0,14.0,29.79,NNW,333,14.0,-999.0,93,-99.99,,,-99.99,,2013-02-18 07:32:00,
2013-02-18 01:42:00,16.0,14.0,29.79,NNW,333,14.0,-999.0,93,-99.99,,,-99.99,,2013-02-18 07:42:00,
2013-02-18 01:52:00,16.0,14.0,29.80,NNW,331,15.0,-999.0,93,-99.99,,,-99.99,,2013-02-18 07:52:00,
2013-02-18 02:01:00,15.0,13.0,29.81,NNW,345,18.0,-999.0,93,-99.99,,,-99.99,,2013-02-18 08:01:00,
2013-02-18 02:11:00,15.0,13.0,29.81,NNW,345,18.0,-999.0,93,-99.99,,,-99.99,,2013-02-18 08:11:00,
2013-02-18 02:21:00,15.0,13.0,29.82,NNW,341,17.0,-999.0,92,-99.99,,,-99.99,,2013-02-18 08:21:00,
2013-02-18 02:32:00,15.0,13.0,29.84,North,350,18.0,-999.0,92,-99.99,,,-99.99,,2013-02-18 08:32:00,
2013-02-18 02:42:00,15.0,13.0,29.84,North,350,18.0,-999.0,92,-99.99,,,-99.99,,2013-02-18 08:42:00,
2013-02-18 02:52:00,15.0,13.0,29.85,North,355,17.0,-999.0,93,-99.99,,,-99.99,,2013-02-18 08:52:00,
2013-02-18 03:02:00,15.0,13.0,29.85,North,355,17.0,-999.0,93,-99.99,,,-99.99,,2013-02-18 09:02:00,
2013-02-18 03:11:00,15.0,13.0,29.85,North,355,17.0,-999.0,93,-99.99,,,-99.99,,2013-02-18 09:11:00,
2013-02-18 03:22:00,15.0,13.0,29.87,North,355,17.0,-999.0,92,-99.99,,,-99.99,,2013-02-18 09:22:00,
2013-02-18 03:31:00,15.0,13.0,29.88,North,350,15.0,-999.0,93,-99.99,,,-99.99,,2013-02-18 09:31:00,
2013-02-18 03:42:00,15.0,13.0,29.88,North,350,15.0,-999.0,93,-99.99,,,-99.99,,2013-02-18 09:42:00,
2013-02-18 03:52:00,14.0,12.0,29.89,North,360,23.0,-999.0,92,-99.99,,,-99.99,,2013-02-18 09:52:00,
2013-02-18 04:01:00,14.0,12.0,29.89,North,349,17.0,-999.0,92,-99.99,,,-99.99,,2013-02-18 10:01:00,
2013-02-18 04:11:00,14.0,12.0,29.89,North,349,17.0,-999.0,92,-99.99,,,-99.99,,2013-02-18 10:11:00,
2013-02-18 04:21:00,14.0,12.0,29.91,NNW,328,17.0,-999.0,92,-99.99,,,-99.99,,2013-02-18 10:21:00,
2013-02-18 04:31:00,13.0,11.0,29.91,NNW,336,14.0,-999.0,92,-99.99,,,-99.99,,2013-02-18 10:31:00,
2013-02-18 04:42:00,13.0,11.0,29.91,NNW,336,14.0,-999.0,92,-99.99,,,-99.99,,2013-02-18 10:42:00,
2013-02-18 04:53:00,12.0,10.0,29.92,North,355,21.0,-999.0,91,-99.99,,,-99.99,,2013-02-18 10:53:00,
2013-02-18 05:01:00,12.0,10.0,29.92,North,355,21.0,-999.0,91,-99.99,,,-99.99,,2013-02-18 11:01:00,
2013-02-18 05:11:00,12.0,10.0,29.92,North,355,21.0,-999.0,91,-99.99,,,-99.99,,2013-02-18 11:11:00,
2013-02-18 05:22:00,12.0,10.0,29.95,NW,318,14.0,-999.0,91,-99.99,,,-99.99,,2013-02-18 11:22:00,
2013-02-18 05:32:00,12.0,10.0,29.95,NW,318,14.0,-999.0,91,-99.99,,,-99.99,,2013-02-18 11:32:00,
2013-02-18 05:43:00,12.0,10.0,29.95,NW,318,14.0,-999.0,91,-99.99,,,-99.99,,2013-02-18 11:43:00,
2013-02-18 05:53:00,11.0,9.0,29.97,NW,322,16.0,-999.0,91,-99.99,,,-99.99,,2013-02-18 11:53:00,
2013-02-18 06:02:00,11.0,9.0,29.98,NNW,331,15.0,-999.0,91,-99.99,,,-99.99,,2013-02-18 12:02:00,
2013-02-18 06:11:00,11.0,9.0,29.98,NNW,331,15.0,-999.0,91,-99.99,,,-99.99,,2013-02-18 12:11:00,
2013-02-18 06:22:00,10.0,8.0,29.98,NNW,336,15.0,-999.0,91,-99.99,,,-99.99,,2013-02-18 12:22:00,
2013-02-18 06:32:00,10.0,8.0,29.99,NW,321,18.0,-999.0,91,-99.99,,,-99.99,,2013-02-18 12:32:00,
2013-02-18 06:42:00,10.0,8.0,29.99,NW,321,18.0,-999.0,91,-99.99,,,-99.99,,2013-02-18 12:42:00,
2013-02-18 07:02:00,10.0,8.0,30.01,NNW,346,15.0,-999.0,91,-99.99,,,-99.99,,2013-02-18 13:02:00,
2013-02-18 07:12:00,10.0,8.0,30.01,NNW,346,15.0,-999.0,91,-99.99,,,-99.99,,2013-02-18 13:12:00,
2013-02-18 07:22:00,10.0,8.0,30.02,NW,326,14.0,-999.0,90,-99.99,,,-99.99,,2013-02-18 13:22:00,
2013-02-18 07:32:00,9.0,7.0,30.02,NNW,330,14.0,-999.0,90,-99.99,,,-99.99,,2013-02-18 13:32:00,
2013-02-18 07:42:00,9.0,7.0,30.02,NNW,330,14.0,-999.0,90,-99.99,,,-99.99,,2013-02-18 13:42:00,
2013-02-18 07:53:00,9.0,7.0,30.04,NNW,337,14.0,-999.0,90,-99.99,,,-99.99,,2013-02-18 13:53:00,
2013-02-18 08:02:00,9.0,7.0,30.05,NNW,338,17.0,-999.0,90,-99.99,,,-99.99,,2013-02-18 14:02:00,
2013-02-18 08:11:00,9.0,7.0,30.05,NNW,338,17.0,-999.0,90,-99.99,,,-99.99,,2013-02-18 14:11:00,
2013-02-18 08:22:00,9.0,7.0,30.06,NNW,338,13.0,-999.0,90,-99.99,,,-99.99,,2013-02-18 14:22:00,
2013-02-18 08:32:00,9.0,7.0,30.06,NNW,336,14.0,-999.0,90,-99.99,,,-99.99,,2013-02-18 14:32:00,
2013-02-18 08:42:00,9.0,7.0,30.06,NNW,336,14.0,-999.0,90,-99.99,,,-99.99,,2013-02-18 14:42:00,
2013-02-18 08:53:00,9.0,7.0,30.07,NNW,337,15.0,-999.0,90,-99.99,,,-99.99,,2013-02-18 14:53:00,
2013-02-18 09:02:00,9.0,7.0,30.08,NNW,333,14.0,-999.0,90,-99.99,,,-99.99,,2013-02-18 15:02:00,
2013-02-18 09:11:00,9.0,7.0,30.08,NNW,333,14.0,-999.0,90,-99.99,,,-99.99,,2013-02-18 15:11:00,
2013-02-18 09:22:00,9.0,7.0,30.09,NNW,327,14.0,-999.0,90,-99.99,,,-99.99,,2013-02-18 15:22:00,
2013-02-18 09:32:00,8.0,6.0,30.09,NNW,336,15.0,-999.0,90,-99.99,,,-99.99,,2013-02-18 15:32:00,
2013-02-18 09:42:00,8.0,6.0,30.09,NNW,336,15.0,-999.0,90,-99.99,,,-99.99,,2013-02-18 15:42:00,
2013-02-18 09:52:00,8.0,5.0,30.09,North,355,20.0,-999.0,89,-99.99,,,-99.99,,2013-02-18 15:52:00,
2013-02-18 10:02:00,7.0,4.0,30.11,NNW,346,19.0,-999.0,89,-99.99,,,-99.99,,2013-02-18 16:02:00,
2013-02-18 10:12:00,7.0,4.0,30.11,NNW,346,19.0,-999.0,89,-99.99,,,-99.99,,2013-02-18 16:12:00,
2013-02-18 10:22:00,7.0,4.0,30.11,NNW,344,19.0,-999.0,89,-99.99,,,-99.99,,2013-02-18 16:22:00,
2013-02-18 10:32:00,7.0,4.0,30.12,NNW,337,18.0,-999.0,89,-99.99,,,-99.99,,2013-02-18 16:32:00,
2013-02-18 10:42:00,7.0,4.0,30.12,NNW,337,18.0,-999.0,89,-99.99,,,-99.99,,2013-02-18 16:42:00,
2013-02-18 10:53:00,7.0,4.0,30.12,NNW,337,18.0,-999.0,89,-99.99,,,-99.99,,2013-02-18 16:53:00,
2013-02-18 11:03:00,6.0,3.0,30.13,North,355,16.0,-999.0,88,-99.99,,,-99.99,,2013-02-18 17:03:00,
2013-02-18 11:12:00,6.0,3.0,30.13,North,355,16.0,-999.0,88,-99.99,,,-99.99,,2013-02-18 17:12:00,
2013-02-18 11:22:00,6.0,3.0,30.13,North,355,16.0,-999.0,88,-99.99,,,-99.99,,2013-02-18 17:22:00,
2013-02-18 11:32:00,6.0,3.0,30.14,NNW,338,16.0,-999.0,88,-99.99,,,-99.99,,2013-02-18 17:32:00,
2013-02-18 11:42:00,6.0,3.0,30.14,NNW,338,16.0,-999.0,88,-99.99,,,-99.99,,2013-02-18 17:42:00,
2013-02-18 11:53:00,6.0,3.0,30.15,NW,321,18.0,-999.0,87,-99.99,,,-99.99,,2013-02-18 17:53:00,
2013-02-18 12:02:00,6.0,3.0,30.15,NW,321,18.0,-999.0,87,-99.99,,,-99.99,,2013-02-18 18:02:00,
2013-02-18 12:12:00,6.0,3.0,30.15,NW,321,18.0,-999.0,87,-99.99,,,-99.99,,2013-02-18 18:12:00,
2013-02-18 12:22:00,6.0,3.0,30.16,NW,315,17.0,-999.0,88,-99.99,,,-99.99,,2013-02-18 18:22:00,
2013-02-18 12:43:00,6.0,3.0,30.16,NW,326,18.0,-999.0,87,-99.99,,,-99.99,,2013-02-18 18:43:00,
2013-02-18 12:53:00,7.0,4.0,30.17,NNW,337,17.0,-999.0,88,-99.99,,,-99.99,,2013-02-18 18:53:00,
2013-02-18 13:02:00,7.0,4.0,30.17,NNW,337,17.0,-999.0,88,-99.99,,,-99.99,,2013-02-18 19:02:00,
2013-02-18 13:12:00,7.0,4.0,30.17,NNW,337,17.0,-999.0,88,-99.99,,,-99.99,,2013-02-18 19:12:00,
2013-02-18 13:22:00,7.0,4.0,30.17,NNW,336,16.0,-999.0,88,-99.99,,,-99.99,,2013-02-18 19:22:00,
2013-02-18 13:33:00,7.0,4.0,30.17,NNW,329,17.0,-999.0,87,-99.99,,,-99.99,,2013-02-18 19:33:00,
2013-02-18 13:42:00,7.0,4.0,30.17,NNW,329,17.0,-999.0,87,-99.99,,,-99.99,,2013-02-18 19:42:00,
2013-02-18 13:52:00,7.0,4.0,30.17,NNW,329,17.0,-999.0,87,-99.99,,,-99.99,,2013-02-18 19:52:00,
2013-02-18 14:02:00,7.0,4.0,30.19,NNW,336,18.0,-999.0,87,-99.99,,,-99.99,,2013-02-18 20:02:00,
2013-02-18 14:12:00,7.0,4.0,30.19,NNW,336,18.0,-999.0,87,-99.99,,,-99.99,,2013-02-18 20:12:00,
2013-02-18 14:23:00,7.0,4.0,30.19,NNW,336,18.0,-999.0,87,-99.99,,,-99.99,,2013-02-18 20:23:00,
2013-02-18 14:33:00,6.0,3.0,30.19,NNW,344,16.0,-999.0,87,-99.99,,,-99.99,,2013-02-18 20:33:00,
2013-02-18 14:42:00,6.0,3.0,30.19,NNW,344,16.0,-999.0,87,-99.99,,,-99.99,,2013-02-18 20:42:00,
2013-02-18 14:53:00,6.0,3.0,30.21,NNW,342,16.0,-999.0,86,-99.99,,,-99.99,,2013-02-18 20:53:00,
2013-02-18 15:03:00,6.0,3.0,30.21,NNW,342,16.0,-999.0,86,-99.99,,,-99.99,,2013-02-18 21:03:00,
2013-02-18 15:12:00,6.0,3.0,30.21,NNW,342,16.0,-999.0,86,-99.99,,,-99.99,,2013-02-18 21:12:00,
2013-02-18 15:22:00,6.0,3.0,30.22,NW,314,16.0,-999.0,86,-99.99,,,-99.99,,2013-02-18 21:22:00,
2013-02-18 15:32:00,6.0,3.0,30.24,North,349,16.0,-999.0,86,-99.99,,,-99.99,,2013-02-18 21:32:00,
2013-02-18 15:43:00,6.0,3.0,30.24,North,349,16.0,-999.0,86,-99.99,,,-99.99,,2013-02-18 21:43:00,
2013-02-18 15:53:00,6.0,3.0,30.24,North,355,17.0,-999.0,86,-99.99,,,-99.99,,2013-02-18 21:53:00,
2013-02-18 16:02:00,6.0,3.0,30.24,North,355,17.0,-999.0,86,-99.99,,,-99.99,,2013-02-18 22:02:00,
2013-02-18 16:12:00,5.0,2.0,30.26,North,355,17.0,-999.0,85,-99.99,,,-99.99,,2013-02-18 22:12:00,
2013-02-18 16:22:00,5.0,2.0,30.26,North,355,17.0,-999.0,85,-99.99,,,-99.99,,2013-02-18 22:22:00,
2013-02-18 16:33:00,5.0,2.0,30.27,North,5,18.0,-999.0,85,-99.99,,,-99.99,,2013-02-18 22:33:00,
2013-02-18 16:43:00,5.0,2.0,30.27,North,5,18.0,-999.0,85,-99.99,,,-99.99,,2013-02-18 22:43:00,
2013-02-18 16:53:00,5.0,4.0,30.27,NNW,342,17.0,-999.0,95,-99.99,,,-99.99,,2013-02-18 22:53:00,
2013-02-18 17:02:00,4.0,0.0,30.28,North,350,17.0,-999.0,84,-99.99,,,-99.99,,2013-02-18 23:02:00,
2013-02-18 17:12:00,4.0,0.0,30.28,North,350,17.0,-999.0,84,-99.99,,,-99.99,,2013-02-18 23:12:00,
2013-02-18 17:22:00,4.0,0.0,30.29,North,350,11.0,-999.0,84,-99.99,,,-99.99,,2013-02-18 23:22:00,
2013-02-18 17:33:00,4.0,0.0,30.29,North,350,11.0,-999.0,84,-99.99,,,-99.99,,2013-02-18 23:33:00,
2013-02-18 17:42:00,4.0,0.0,30.29,North,350,11.0,-999.0,84,-99.99,,,-99.99,,2013-02-18 23:42:00,
2013-02-18 17:52:00,3.0,-1.0,30.30,NNW,340,12.0,-999.0,84,-99.99,,,-99.99,,2013-02-18 23:52:00,
2013-02-18 18:02:00,1.0,-3.0,30.32,NW,325,9.0,-999.0,84,-99.99,,,-99.99,,2013-02-19 00:02:00,
2013-02-18 18:12:00,1.0,-3.0,30.32,NW,325,9.0,-999.0,84,-99.99,,,-99.99,,2013-02-19 00:12:00,
2013-02-18 18:22:00,0.0,-4.0,30.32,NW,325,9.0,-999.0,84,-99.99,,,-99.99,,2013-02-19 00:22:00,
2013-02-18 18:34:00,0.0,-4.0,30.33,NW,323,6.0,-999.0,84,-99.99,,,-99.99,,2013-02-19 00:34:00,
2013-02-18 18:43:00,0.0,-4.0,30.33,NW,323,6.0,-999.0,84,-99.99,,,-99.99,,2013-02-19 00:43:00,
2013-02-18 18:53:00,-1.0,-5.0,30.33,NW,325,7.0,-999.0,84,-99.99,,,-99.99,,2013-02-19 00:53:00,
2013-02-18 19:03:00,-1.0,-5.0,30.33,NW,325,7.0,-999.0,84,-99.99,,,-99.99,,2013-02-19 01:03:00,
2013-02-18 19:13:00,-1.0,-5.0,30.33,NW,325,7.0,-999.0,84,-99.99,,,-99.99,,2013-02-19 01:13:00,
2013-02-18 19:23:00,-1.0,-5.0,30.33,NW,323,7.0,-999.0,84,-99.99,,,-99.99,,2013-02-19 01:23:00,
2013-02-18 19:33:00,-2.0,-6.0,30.34,NNW,327,8.0,-999.0,84,-99.99,,,-99.99,,2013-02-19 01:33:00,
2013-02-18 19:43:00,-2.0,-6.0,30.34,NNW,327,8.0,-999.0,84,-99.99,,,-99.99,,2013-02-19 01:43:00,
2013-02-18 19:53:00,-3.0,-7.0,30.36,NNW,327,8.0,-999.0,83,-99.99,,,-99.99,,2013-02-19 01:53:00,
2013-02-18 20:03:00,-3.0,-7.0,30.36,NNW,327,8.0,-999.0,83,-99.99,,,-99.99,,2013-02-19 02:03:00,
2013-02-18 20:13:00,-3.0,-7.0,30.36,NNW,327,8.0,-999.0,83,-99.99,,,-99.99,,2013-02-19 02:13:00,
2013-02-18 20:23:00,-4.0,-8.0,30.37,NNW,330,7.0,-999.0,83,-99.99,,,-99.99,,2013-02-19 02:23:00,
2013-02-18 20:34:00,-5.0,-9.0,30.37,NW,323,7.0,-999.0,83,-99.99,,,-99.99,,2013-02-19 02:34:00,
2013-02-18 20:43:00,-5.0,-9.0,30.37,NW,323,7.0,-999.0,83,-99.99,,,-99.99,,2013-02-19 02:43:00,
2013-02-18 20:55:00,-5.0,-9.0,30.37,NW,323,7.0,-999.0,83,-99.99,,,-99.99,,2013-02-19 02:55:00,
2013-02-18 21:05:00,-5.0,-9.0,30.37,NW,323,7.0,-999.0,83,-99.99,,,-99.99,,2013-02-19 03:05:00,
2013-02-18 21:13:00,-5.0,-9.0,30.37,NW,323,7.0,-999.0,83,-99.99,,,-99.99,,2013-02-19 03:13:00,
2013-02-18 21:23:00,-6.0,-10.0,30.38,NW,322,4.0,-999.0,83,-99.99,,,-99.99,,2013-02-19 03:23:00,
2013-02-18 21:34:00,-7.0,-11.0,30.39,NW,319,5.0,-999.0,83,-99.99,,,-99.99,,2013-02-19 03:34:00,
2013-02-18 21:44:00,-7.0,-11.0,30.39,NW,319,5.0,-999.0,83,-99.99,,,-99.99,,2013-02-19 03:44:00,
2013-02-18 21:53:00,-5.0,-9.0,30.40,WNW,303,10.0,-999.0,84,-99.99,,,-99.99,,2013-02-19 03:53:00,
2013-02-18 22:02:00,-5.0,-9.0,30.41,NW,304,9.0,-999.0,83,-99.99,,,-99.99,,2013-02-19 04:02:00,
2013-02-18 22:14:00,-5.0,-9.0,30.41,NW,304,9.0,-999.0,83,-99.99,,,-99.99,,2013-02-19 04:14:00,
2013-02-18 22:23:00,-5.0,-9.0,30.41,NW,304,9.0,-999.0,83,-99.99,,,-99.99,,2013-02-19 04:23:00,
2013-02-18 22:33:00,-7.0,-11.0,30.41,NW,305,9.0,-999.0,82,-99.99,,,-99.99,,2013-02-19 04:33:00,
2013-02-18 22:43:00,-7.0,-11.0,30.41,NW,305,9.0,-999.0,82,-99.99,,,-99.99,,2013-02-19 04:43:00,
2013-02-18 22:52:00,-9.0,-13.0,30.42,NW,304,4.0,-999.0,82,-99.99,,,-99.99,,2013-02-19 04:52:00,
2013-02-18 23:02:00,-9.0,-13.0,30.42,NW,304,5.0,-999.0,82,-99.99,,,-99.99,,2013-02-19 05:02:00,
2013-02-18 23:12:00,-9.0,-13.0,30.42,NW,304,5.0,-999.0,82,-99.99,,,-99.99,,2013-02-19 05:12:00,
2013-02-18 23:22:00,-10.0,-14.0,30.44,NW,304,5.0,-999.0,81,-99.99,,,-99.99,,2013-02-19 05:22:00,
2013-02-18 23:32:00,-13.0,-17.0,30.45,NW,304,4.0,-999.0,80,-99.99,,,-99.99,,2013-02-19 05:32:00,
2013-02-18 23:43:00,-13.0,-17.0,30.45,NW,304,4.0,-999.0,80,-99.99,,,-99.99,,2013-02-19 05:43:00,
2013-02-18 23:52:00,-14.0,-18.0,30.45,NW,305,3.0,-999.0,80,-99.99,,,-99.99,,2013-02-19 05:52:00,